Visibility
15.0 15.0 15.0 15.0 15.0 15.0 15.0 15.0 15.0 15.0 15.0 15.0 15.0 15.0 15.0 15.0 15.0 15.0 15.0 15.0 11.7 10.4 15.0 15.0 15.0 15.0 15.0 15.0 15.0 15.0 15.0 15.0 15.0 15.0 15.0 15.0 12.6 11.0 15.0 15.0 15.0 11.5 3.7 14.1 15.0 1.2 2.0 15.0 13.8 9.6 8.1 15.0 4.6 0.1
15.0 15.0 15.0 15.0 15.0 15.0 15.0 15.0 15.0 15.0 15.0 15.0 15.0 15.0 15.0 15.0 15.0 15.0 15.0 15.0 15.0 14.3 15.0 15.0 15.0 15.0 15.0 15.0 15.0 15.0 11.1 15.0 15.0 5.5 14.5 13.8 10.4 7.0 15.0 14.1 15.0 15.0 15.0 15.0 14.0 13.7 14.0 0.0 0.3 0.0 13.4 0.0 0.0 0.5
15.0 15.0 15.0 15.0 15.0 15.0 15.0 15.0 15.0 15.0 15.0 15.0 15.0 15.0 15.0 15.0 15.0 15.0 15.0 15.0 15.0 15.0 15.0 15.0 15.0 15.0 15.0 15.0 15.0 15.0 14.7 5.1 0.1 3.1 0.2 15.0 14.9 15.0 15.0 15.0 15.0 10.0 15.0 13.7 12.3 14.3 0.2 2.5 15.0 15.0 15.0 15.0 0.5 7.2
15.0 15.0 15.0 15.0 15.0 15.0 15.0 15.0 15.0 15.0 15.0 15.0 15.0 15.0 15.0 15.0 15.0 15.0 15.0 15.0 15.0 10.1 11.9 15.0 15.0 15.0 15.0 15.0 15.0 15.0 4.7 0.4 0.0 0.0 0.0 0.4 1.6 15.0 14.9 14.8 10.7 11.0 15.0 15.0 15.0 3.5 2.7 11.8 15.0 15.0 15.0 15.0 15.0 15.0
15.0 15.0 15.0 15.0 15.0 15.0 15.0 15.0 15.0 15.0 15.0 15.0 15.0 15.0 15.0 15.0 15.0 15.0 15.0 15.0 15.0 14.7 14.1 15.0 15.0 15.0 15.0 15.0 15.0 1.2 0.8 0.0 0.1 0.7 0.1 0.5 13.5 0.4 12.9 14.8 13.3 15.0 3.4 0.4 7.0 15.0 15.0 15.0 15.0 15.0 15.0 15.0 15.0 15.0
15.0 15.0 15.0 15.0 15.0 15.0 15.0 15.0 15.0 15.0 15.0 15.0 15.0 15.0 15.0 15.0 15.0 15.0 14.3 15.0 15.0 15.0 4.0 15.0 15.0 15.0 15.0 15.0 1.0 14.6 14.8 7.2 0.1 1.4 2.1 8.0 0.1 0.0 2.9 4.3 15.0 15.0 15.0 15.0 15.0 15.0 15.0 15.0 15.0 15.0 15.0 15.0 15.0 15.0
15.0 15.0 15.0 15.0 15.0 15.0 15.0 15.0 15.0 15.0 15.0 15.0 15.0 15.0 15.0 15.0 15.0 14.8 5.5 3.6 15.0 15.0 9.7 8.3 15.0 15.0 15.0 15.0 15.0 15.0 15.0 14.1 3.1 4.0 2.4 4.2 8.0 4.5 1.2 9.1 15.0 15.0 15.0 15.0 15.0 15.0 15.0 15.0 15.0 15.0 15.0 15.0 15.0 15.0
15.0 15.0 15.0 15.0 15.0 15.0 15.0 15.0 15.0 15.0 15.0 15.0 15.0 15.0 15.0 15.0 15.0 13.6 15.0 15.0 15.0 11.3 3.2 1.7 15.0 15.0 15.0 15.0 15.0 15.0 12.9 15.0 1.5 0.7 6.2 1.6 10.5 3.1 1.8 15.0 15.0 15.0 15.0 15.0 15.0 15.0 15.0 15.0 15.0 15.0 15.0 15.0 15.0 15.0
15.0 15.0 15.0 15.0 15.0 15.0 15.0 15.0 15.0 15.0 15.0 15.0 15.0 15.0 15.0 11.2 0.0 1.2 15.0 15.0 3.2 10.0 4.5 6.2 12.1 14.6 15.0 15.0 15.0 15.0 13.7 4.4 4.4 1.7 4.0 8.6 11.3 3.1 15.0 15.0 15.0 15.0 15.0 15.0 15.0 15.0 15.0 15.0 15.0 15.0 15.0 15.0 15.0 15.0
15.0 15.0 15.0 15.0 15.0 15.0 15.0 15.0 15.0 15.0 15.0 15.0 14.7 0.0 0.5 0.0 15.0 15.0 3.4 7.0 14.8 5.5 15.0 5.1 15.0 15.0 15.0 15.0 15.0 15.0 15.0 6.6 1.0 0.3 12.9 0.5 14.1 15.0 15.0 15.0 15.0 15.0 15.0 15.0 15.0 15.0 15.0 15.0 15.0 15.0 15.0 15.0 14.8 5.2
15.0 15.0 15.0 15.0 15.0 15.0 15.0 15.0 15.0 15.0 15.0 15.0 13.7 0.6 0.0 10.5 8.7 15.0 15.0 15.0 15.0 13.9 12.9 13.5 15.0 15.0 15.0 10.5 9.7 8.4 4.7 9.0 0.7 7.4 11.7 6.6 14.8 15.0 15.0 15.0 15.0 15.0 15.0 15.0 15.0 15.0 15.0 15.0 15.0 15.0 13.7 4.5 0.7 7.4
15.0 15.0 15.0 15.0 15.0 15.0 15.0 15.0 15.0 15.0 15.0 6.5 4.3 0.0 0.0 5.7 15.0 15.0 15.0 15.0 11.7 15.0 15.0 15.0 15.0 15.0 15.0 15.0 0.5 1.2 0.7 0.6 1.4 15.0 1.5 11.1 15.0 15.0 15.0 15.0 15.0 15.0 15.0 15.0 15.0 15.0 15.0 15.0 8.4 0.7 0.4 1.4 8.8 15.0
15.0 15.0 15.0 15.0 15.0 15.0 15.0 15.0 15.0 15.0 15.0 0.2 0.1 15.0 8.7 15.0 12.5 15.0 15.0 15.0 15.0 15.0 15.0 15.0 15.0 15.0 15.0 1.8 0.5 0.4 0.4 1.5 14.3 0.8 6.6 15.0 15.0 15.0 15.0 15.0 15.0 15.0 15.0 15.0 15.0 15.0 15.0 5.2 2.1 0.7 1.2 14.3 15.0 15.0
15.0 15.0 15.0 15.0 15.0 15.0 15.0 15.0 15.0 15.0 15.0 15.0 15.0 15.0 15.0 15.0 15.0 15.0 15.0 15.0 15.0 15.0 15.0 15.0 15.0 15.0 15.0 0.4 3.9 0.3 2.1 0.5 0.3 0.6 15.0 15.0 14.8 14.9 15.0 15.0 15.0 15.0 15.0 15.0 14.9 13.7 15.0 15.0 14.8 15.0 15.0 15.0 15.0 15.0
15.0 15.0 15.0 15.0 15.0 15.0 15.0 15.0 15.0 15.0 0.1 15.0 13.4 13.2 15.0 15.0 15.0 15.0 15.0 15.0 15.0 15.0 15.0 15.0 12.5 11.6 1.2 0.3 1.4 1.5 0.3 3.4 15.0 15.0 15.0 15.0 14.9 10.6 15.0 15.0 15.0 15.0 15.0 15.0 15.0 15.0 15.0 15.0 15.0 15.0 15.0 15.0 15.0 15.0
15.0 15.0 15.0 15.0 15.0 15.0 15.0 8.3 0.2 0.0 0.0 1.9 7.5 1.0 15.0 10.7 15.0 15.0 15.0 15.0 15.0 15.0 15.0 12.7 1.9 0.2 0.2 2.2 0.2 8.5 1.5 11.8 15.0 15.0 15.0 15.0 15.0 15.0 15.0 15.0 15.0 15.0 15.0 15.0 15.0 15.0 15.0 15.0 6.3 9.0 15.0 15.0 15.0 15.0
15.0 15.0 15.0 15.0 15.0 15.0 15.0 0.0 0.0 0.1 13.1 3.1 4.6 15.0 15.0 15.0 15.0 15.0 15.0 15.0 15.0 15.0 1.5 0.2 0.1 8.0 2.7 0.2 0.4 15.0 15.0 15.0 15.0 15.0 15.0 15.0 15.0 15.0 15.0 15.0 15.0 15.0 15.0 15.0 15.0 15.0 15.0 15.0 15.0 15.0 15.0 15.0 15.0 15.0
15.0 15.0 15.0 15.0 15.0 12.5 0.0 0.0 0.0 12.7 0.6 10.0 3.1 15.0 15.0 15.0 15.0 15.0 15.0 15.0 15.0 15.0 2.1 0.4 11.8 0.1 1.5 15.0 15.0 15.0 15.0 15.0 15.0 15.0 14.4 9.2 8.8 15.0 15.0 15.0 15.0 15.0 15.0 15.0 15.0 15.0 15.0 15.0 15.0 15.0 15.0 15.0 15.0 15.0
15.0 15.0 15.0 15.0 11.5 0.1 0.0 0.0 0.0 0.3 15.0 15.0 15.0 15.0 15.0 15.0 15.0 15.0 15.0 15.0 15.0 15.0 0.1 0.1 0.1 0.3 15.0 15.0 15.0 15.0 15.0 15.0 15.0 10.3 1.3 0.1 1.9 0.9 3.8 14.1 15.0 15.0 15.0 12.6 15.0 15.0 15.0 15.0 15.0 15.0 15.0 15.0 11.4 14.0
12.4 10.6 10.7 12.0 3.7 0.0 0.1 0.1 0.0 0.0 0.5 13.0 15.0 14.9 15.0 15.0 15.0 15.0 15.0 15.0 15.0 0.1 0.1 0.1 1.8 15.0 15.0 7.5 7.9 6.8 6.2 11.6 2.0 0.5 0.3 0.2 0.1 0.1 0.1 0.4 8.4 15.0 15.0 15.0 15.0 14.9 15.0 15.0 15.0 15.0 15.0 12.7 15.0 15.0
11.8 0.5 15.0 12.6 0.0 0.0 0.0 0.1 0.1 0.5 15.0 0.2 15.0 15.0 15.0 13.6 13.5 15.0 15.0 14.7 0.2 0.1 0.3 3.4 3.0 1.7 0.4 0.3 0.6 0.6 0.5 1.6 0.8 0.7 1.2 6.4 5.5 4.1 2.4 15.0 15.0 15.0 15.0 15.0 15.0 15.0 15.0 15.0 15.0 15.0 15.0 15.0 15.0 15.0
0.0 11.3 0.0 0.0 0.0 0.0 0.0 0.9 15.0 11.4 0.3 3.3 2.0 3.9 12.0 15.0 15.0 15.0 11.8 0.8 0.9 0.2 0.2 0.1 0.1 0.1 0.1 0.1 0.1 0.1 0.1 0.4 1.5 6.8 7.4 13.8 15.0 15.0 15.0 15.0 13.6 2.4 7.6 8.6 6.8 8.0 15.0 15.0 14.3 12.3 14.5 15.0 15.0 15.0
6.5 0.6 0.0 0.0 0.0 0.0 0.3 0.2 0.1 0.2 0.1 2.9 6.4 15.0 0.4 8.9 9.1 6.7 0.5 0.1 0.1 0.1 0.1 0.1 0.1 0.1 0.1 0.1 0.1 0.1 0.1 0.2 7.2 15.0 15.0 15.0 15.0 15.0 15.0 15.0 15.0 2.4 3.1 13.8 15.0 15.0 15.0 13.1 15.0 5.4 14.9 15.0 15.0 15.0
3.3 0.0 0.0 0.0 0.0 0.1 0.1 0.1 0.1 0.1 0.1 0.1 0.1 0.1 0.3 0.1 0.1 0.1 0.1 0.1 0.1 0.1 0.1 0.1 0.1 0.1 0.1 0.1 0.1 0.2 2.8 15.0 15.0 15.0 15.0 15.0 15.0 15.0 15.0 15.0 15.0 14.7 14.8 14.8 9.2 15.0 15.0 15.0 10.8 15.0 15.0 7.0 14.2 14.8
0.0 0.0 0.1 0.1 0.1 0.1 0.1 0.1 0.1 0.1 0.1 0.2 0.1 0.3 0.1 0.1 0.1 0.1 0.1 0.1 0.1 0.1 0.1 0.1 0.1 0.2 0.3 2.8 15.0 15.0 15.0 15.0 13.0 8.4 15.0 15.0 15.0 14.8 15.0 15.0 15.0 15.0 15.0 4.8 1.9 3.8 11.7 15.0 15.0 14.5 7.8 2.5 0.6 2.6
0.1 0.1 0.1 0.1 0.2 0.2 0.1 0.2 0.1 0.1 0.2 0.2 0.1 0.1 0.1 0.1 0.1 0.1 0.1 0.1 0.1 0.1 0.2 2.7 13.2 15.0 15.0 15.0 15.0 15.0 15.0 15.0 15.0 9.8 15.0 15.0 15.0 4.6 3.1 2.5 5.1 13.0 15.0 6.0 0.4 0.8 1.7 7.5 13.2 6.7 3.2 6.2 5.2 15.0
0.1 0.1 0.2 12.2 13.7 5.4 6.1 2.4 0.2 0.4 0.2 0.1 0.3 3.6 0.3 0.1 0.1 0.1 0.1 0.2 0.4 9.3 15.0 15.0 15.0 15.0 15.0 15.0 15.0 15.0 15.0 15.0 14.9 15.0 15.0 15.0 15.0 15.0 9.1 1.6 2.1 9.9 15.0 0.4 0.3 1.1 0.3 0.4 3.1 5.3 1.3 7.7 15.0 15.0
1.9 15.0 15.0 15.0 15.0 1.7 0.5 0.7 0.9 0.4 0.7 13.9 15.0 15.0 13.5 1.4 0.6 1.1 1.1 7.7 15.0 15.0 15.0 15.0 15.0 15.0 15.0 15.0 15.0 15.0 15.0 15.0 15.0 15.0 15.0 15.0 15.0 15.0 15.0 15.0 5.4 7.7 4.1 1.0 1.7 0.3 0.3 0.5 4.3 0.2 0.5 2.8 14.5 15.0
15.0 15.0 15.0 15.0 15.0 9.7 1.8 5.0 14.1 12.8 15.0 15.0 15.0 15.0 13.7 8.7 5.4 2.8 15.0 15.0 15.0 15.0 15.0 15.0 15.0 15.0 15.0 15.0 15.0 15.0 15.0 15.0 15.0 15.0 14.1 14.8 15.0 15.0 15.0 15.0 15.0 15.0 15.0 14.8 14.3 3.6 0.7 0.2 0.1 0.1 0.3 6.8 15.0 15.0
15.0 15.0 15.0 15.0 15.0 14.3 11.4 12.9 15.0 15.0 15.0 15.0 8.9 14.2 14.8 13.0 13.9 14.6 15.0 15.0 15.0 15.0 15.0 15.0 15.0 15.0 15.0 15.0 15.0 15.0 15.0 15.0 15.0 14.7 1.3 0.8 4.6 15.0 15.0 15.0 15.0 15.0 15.0 9.3 4.9 4.9 9.5 1.8 1.7 8.5 9.9 15.0 15.0 7.1
15.0 15.0 15.0 15.0 15.0 15.0 15.0 15.0 15.0 15.0 15.0 11.2 4.7 2.9 9.2 14.4 15.0 15.0 15.0 15.0 15.0 15.0 15.0 15.0 15.0 15.0 15.0 15.0 15.0 15.0 15.0 15.0 15.0 15.0 12.6 1.2 3.1 6.1 11.4 15.0 15.0 10.3 4.2 1.8 0.5 0.5 0.5 0.6 1.0 0.9 1.8 4.6 6.3 2.0
15.0 15.0 15.0 12.4 15.0 15.0 15.0 15.0 15.0 15.0 15.0 15.0 14.4 4.9 15.0 10.7 8.6 15.0 15.0 15.0 15.0 15.0 15.0 15.0 15.0 15.0 15.0 15.0 15.0 15.0 15.0 15.0 15.0 15.0 15.0 6.1 2.0 2.6 13.3 1.6 0.4 1.3 0.7 0.4 1.8 2.2 2.0 1.2 1.9 4.2 3.0 0.9 3.1 5.6
15.0 15.0 13.2 15.0 15.0 15.0 15.0 15.0 15.0 15.0 15.0 15.0 15.0 13.4 15.0 12.8 14.2 15.0 15.0 15.0 15.0 15.0 15.0 15.0 15.0 15.0 15.0 15.0 15.0 15.0 14.0 15.0 7.5 4.3 3.1 1.8 1.9 1.2 2.0 3.6 12.9 0.2 0.1 0.1 0.4 1.2 0.5 0.4 0.4 0.7 0.8 1.0 1.9 5.2